IWY270 MBPV-MYNN

Flight info

Callsign IWY270
Flight time N/A
Altitude 34000
Route SEAAN
Aircraft CRJ9/M-SDFGIRWY/S

Departure

Time N/A
Airport Providenciales International Airport (MBPV)

Arrival

Time 2026-05-05 00:41
Airport Lynden Pindling International Airport (MYNN)
Time Latitude Longitude Altitude Speed Heading
2026-05-05 00:25 24.53547 -76.87211 18664 ft 298 kts 296°
2026-05-05 00:25 24.54588 -76.89241 18383 ft 307 kts 296°
2026-05-05 00:25 24.55649 -76.91303 18059 ft 316 kts 296°
2026-05-05 00:25 24.56747 -76.93433 17704 ft 319 kts 296°
2026-05-05 00:26 24.57833 -76.95540 17346 ft 315 kts 296°
2026-05-05 00:26 24.58900 -76.97610 16983 ft 311 kts 296°
2026-05-05 00:26 24.59962 -76.99674 16625 ft 308 kts 296°
2026-05-05 00:26 24.61019 -77.01725 16271 ft 306 kts 296°
2026-05-05 00:27 24.62050 -77.03727 15920 ft 303 kts 296°
2026-05-05 00:27 24.63088 -77.05747 15586 ft 301 kts 296°
2026-05-05 00:27 24.64118 -77.07743 15249 ft 299 kts 296°
2026-05-05 00:27 24.65128 -77.09709 14912 ft 297 kts 296°
2026-05-05 00:28 24.66143 -77.11684 14597 ft 295 kts 297°
2026-05-05 00:28 24.67153 -77.13650 14274 ft 293 kts 297°
2026-05-05 00:28 24.68151 -77.15595 13956 ft 291 kts 297°
2026-05-05 00:28 24.69135 -77.17508 13630 ft 289 kts 297°
2026-05-05 00:29 24.70123 -77.19436 13279 ft 288 kts 297°
2026-05-05 00:29 24.71106 -77.21346 12938 ft 286 kts 297°
2026-05-05 00:29 24.72085 -77.23254 12599 ft 285 kts 297°
2026-05-05 00:29 24.73021 -77.25082 12274 ft 283 kts 297°
2026-05-05 00:30 24.74007 -77.27006 11946 ft 281 kts 297°
2026-05-05 00:30 24.74953 -77.28857 11626 ft 280 kts 297°
2026-05-05 00:30 24.75909 -77.30718 11316 ft 278 kts 297°
2026-05-05 00:30 24.76858 -77.32574 11003 ft 276 kts 297°
2026-05-05 00:31 24.77801 -77.34419 10697 ft 275 kts 297°
2026-05-05 00:31 24.78739 -77.36252 10386 ft 273 kts 297°
2026-05-05 00:31 24.79654 -77.38047 10101 ft 272 kts 297°
2026-05-05 00:31 24.80580 -77.39860 9802 ft 270 kts 297°
2026-05-05 00:32 24.81499 -77.41655 9473 ft 269 kts 297°
2026-05-05 00:32 24.82413 -77.43446 9156 ft 267 kts 297°
2026-05-05 00:32 24.83322 -77.45229 8836 ft 265 kts 296°
2026-05-05 00:32 24.84215 -77.46970 8533 ft 264 kts 297°
2026-05-05 00:33 24.85124 -77.48725 8230 ft 262 kts 297°
2026-05-05 00:33 24.86017 -77.50471 7930 ft 260 kts 296°
2026-05-05 00:33 24.86888 -77.52186 7627 ft 258 kts 296°
2026-05-05 00:33 24.87764 -77.53907 7343 ft 256 kts 296°
2026-05-05 00:34 24.88633 -77.55617 7053 ft 254 kts 296°
2026-05-05 00:34 24.89496 -77.57313 6770 ft 253 kts 296°
2026-05-05 00:34 24.90355 -77.59002 6482 ft 251 kts 297°
2026-05-05 00:34 24.91199 -77.60656 6186 ft 249 kts 296°
2026-05-05 00:35 24.92039 -77.62313 5882 ft 246 kts 297°
2026-05-05 00:35 24.92879 -77.63964 5589 ft 244 kts 297°
2026-05-05 00:35 24.93717 -77.65559 5276 ft 243 kts 303°
2026-05-05 00:35 24.95045 -77.66681 4954 ft 245 kts 341°
2026-05-05 00:36 24.96666 -77.67225 4678 ft 242 kts 339°
2026-05-05 00:36 24.98238 -77.67888 4380 ft 240 kts 337°
2026-05-05 00:36 24.99767 -77.68570 4090 ft 239 kts 340°
2026-05-05 00:36 25.01417 -77.68601 3724 ft 243 kts 18°
2026-05-05 00:37 25.02758 -77.67518 3407 ft 242 kts 57°
2026-05-05 00:37 25.03346 -77.65807 3149 ft 237 kts 78°
2026-05-05 00:37 25.03602 -77.64016 2866 ft 236 kts 86°
2026-05-05 00:37 25.03656 -77.62226 2597 ft 230 kts 91°
2026-05-05 00:38 25.03617 -77.60494 2298 ft 225 kts 92°
2026-05-05 00:38 25.03561 -77.58783 1983 ft 221 kts 92°
2026-05-05 00:38 25.03525 -77.57147 1705 ft 204 kts 91°
2026-05-05 00:38 25.03512 -77.55641 1363 ft 190 kts 89°
2026-05-05 00:39 25.03527 -77.54226 1054 ft 178 kts 88°
2026-05-05 00:39 25.03541 -77.52974 945 ft 149 kts 88°
2026-05-05 00:39 25.03582 -77.51825 725 ft 153 kts 88°
2026-05-05 00:39 25.03595 -77.50639 435 ft 153 kts 90°
2026-05-05 00:40 25.03587 -77.49489 204 ft 153 kts 91°
2026-05-05 00:40 25.03593 -77.48321 55 ft 150 kts 91°
2026-05-05 00:40 25.03594 -77.47251 17 ft 120 kts 89°
2026-05-05 00:40 25.03601 -77.46496 15 ft 77 kts 89°
2026-05-05 00:41 25.03605 -77.46149 17 ft 37 kts 82°
2026-05-05 00:41 25.03711 -77.45991 18 ft 18 kts 44°
2026-05-05 00:41 25.03801 -77.45895 17 ft 18 kts 43°
2026-05-05 00:41 25.03874 -77.45856 15 ft 3 kts 334°
2026-05-05 00:42 25.03881 -77.45863 15 ft 4 kts 313°
2026-05-05 00:42 25.03914 -77.45905 16 ft 11 kts 315°
2026-05-05 00:42 25.03978 -77.45975 15 ft 14 kts 315°
2026-05-05 00:42 25.04047 -77.46052 15 ft 14 kts 314°
2026-05-05 00:43 25.04118 -77.46132 18 ft 15 kts 314°
2026-05-05 00:43 25.04191 -77.46212 17 ft 15 kts 315°
2026-05-05 00:43 25.04266 -77.46297 15 ft 16 kts 315°
2026-05-05 00:43 25.04344 -77.46383 15 ft 16 kts 314°
2026-05-05 00:44 25.04423 -77.46469 17 ft 16 kts 314°
2026-05-05 00:44 25.04501 -77.46558 15 ft 16 kts 315°
2026-05-05 00:44 25.04583 -77.46645 16 ft 16 kts 317°
2026-05-05 00:44 25.04667 -77.46729 16 ft 16 kts 342°
2026-05-05 00:45 25.04760 -77.46685 15 ft 12 kts 41°
2026-05-05 00:45 25.04803 -77.46684 16 ft 3 kts 345°
2026-05-05 00:45 25.04811 -77.46683 15 ft 2 kts
2026-05-05 00:45 25.04824 -77.46680 17 ft 1 kts 29°
2026-05-05 00:46 25.04826 -77.46678 16 ft 0 kts 30°
2026-05-05 00:46 25.04829 -77.46677 16 ft 0 kts 30°